Погода в Новониколаевке

Украина / Днепропетровская область     48°33′24″N   34°22′53″E
темп.,
°C
ветер,
м/с
пор.,
м/с
влажн.,
%
обл.,
%
осадки,
мм/ч
давл.,
гПа
погр.,
м
17 апреля, сб
сб1700:00+4ююз488193 0.0 1017238
03:00+5ююз4883100 0.0 1018934
06:00+5ююз4787100 0.2 1018586
09:00+6зюз458161 0.3 1019651
12:00+8юз4566100 0.1 10201150
15:00+11з6851100 0.1 10201839
18:00+10зсз3562100 0.0 1020387
21:00+8зюз1167100 0.0 102012
18 апреля, вс
вс1800:00+8ююв1168100 0.0 102011
03:00+6юв117490 0.0 102011
06:00+5ю228483 0.0 101921
09:00+10ююз346331 0.0 1019454
12:00+14ю454495 0.0 10181737
15:00+16ю343876 0.0 10172245
18:00+14ююз3446100 0.0 1016460
21:00+12юз2248100 0.0 101739
19 апреля, пн
пн1900:00+10ююв345789 0.0 101691
03:00+9ююз3479100 0.0 101671
06:00+9ю118395 0.1 101612
09:00+12вюв34667 0.1 1015584
12:00+15в334995 0.1 10141696
15:00+16всв3348100 0.2 10131724
18:00+13в5664100 0.3 1013604
21:00+10всв5777100 0.3 1012416
20 апреля, вт
вт2000:00+8всв3791100 0.0 1010239
03:00+8св499190 0.0 1007299
06:00+9св61193100 1.1 1003405
09:00+8св61397100 8.6 1000514
12:00+9ссв4898100 10.3 995428
15:00+10ююз51196100 19.3 993668
18:00+11юз61185100 1.3 994814
21:00+8з71192100 3.2 997672
21 апреля, ср
ср2100:00+8з81388100 0.8 10021210
03:00+8зюз81481100 0.9 1006896
06:00+8зюз61185100 0.1 1010560
09:00+10зюз6875100 0.1 1013763
12:00+10юз3573100 0.1 1015680
15:00+13зюз575698 0.3 10151688
18:00+12з455916 0.1 10171124
21:00+9зсз227444 0.1 101916